Regional Weather Roundup
Issued by NWS

Home | Current Version | Previous Version | Text Only | Print | Product List | Glossary Off
Versions: 1 2 3 4 5 6 7 8 9 10 11 12 13 14 15 16 17 18 19 20 21 22 23 24 25 26 27 28 29 30 31 32 33 34 35 36 37 38 39 40 41 42 43 44 45 46 47 48 49 50

000
ASUS43 KMKX 020021
RWRWI

WISCONSIN REGIONAL WEATHER ROUNDUP
NATIONAL WEATHER SERVICE MILWAUKEE/SULLIVAN WI
700 PM CDT TUE SEP 01 2015

NOTE: "FAIR" INDICATES FEW OR NO CLOUDS BELOW 12,000 FEET WITH NO
SIGNIFICANT WEATHER AND/OR OBSTRUCTIONS TO VISIBILITY.

WIZ001-002-006>008-014>016-023>028-020100-
NORTHWEST WISCONSIN

CITY           SKY/WX    TMP DP  RH WIND       PRES   REMARKS
SUPERIOR ARPT  PTCLDY    77  73  85 CALM      29.88S
6HR MIN TEMP:  77; 6HR MAX TEMP:  83;

ASHLAND        MOCLDY    81  75  82 CALM      29.91R HX  87
6HR MIN TEMP:  79; 6HR MAX TEMP:  85;

HAYWARD        MOCLDY    79  73  82 S3        29.93S HX  82
6HR MIN TEMP:  79; 6HR MAX TEMP:  84;

SIREN          CLOUDY    81  71  72 SW3       29.92S HX  85
6HR MIN TEMP:  81; 6HR MAX TEMP:  85;

CUMBERLAND     CLOUDY    77  72  83 CALM      29.94R
RICE LAKE      CLOUDY    77  73  87 CALM      29.94S
6HR MIN TEMP:  77; 6HR MAX TEMP:  83;

CHETEK         CLOUDY   N/A N/A N/A CALM      29.92S
LADYSMITH      CLOUDY    78  73  83 CALM      29.96S HX  81
6HR MIN TEMP:  79; 6HR MAX TEMP:  83;

EAU CLAIRE     CLOUDY    84  74  71 CALM      29.90S HX  91
6HR MIN TEMP:  84; 6HR MAX TEMP:  87;

MENOMONIE      CLOUDY    82  74  77 CALM      29.91R HX  89
6HR MIN TEMP:  83; 6HR MAX TEMP:  89;

NEW RICHMOND   CLOUDY    81  73  78 CALM      29.91F HX  85
6HR MIN TEMP:  80; 6HR MAX TEMP:  85;

OSCEOLA        CLOUDY    80  74  79 CALM      29.93S HX  85
6HR MIN TEMP:  80; 6HR MAX TEMP:  85;

$$

WIZ003>005-009-010-017-018-020100-
NORTH CENTRAL WISCONSIN

CITY           SKY/WX    TMP DP  RH WIND       PRES   REMARKS
MANITOWISH WTR PTCLDY    75  70  84 S3        29.96S
6HR MIN TEMP:  75; 6HR MAX TEMP:  81;

ARBOR VITAE    PTCLDY    77  71  80 CALM      29.97R
6HR MIN TEMP:  77; 6HR MAX TEMP:  82;

WOODRUFF       PTCLDY    77  71  80 CALM      29.97R
6HR MIN TEMP:  77; 6HR MAX TEMP:  82;

RHINELANDER    PTCLDY    78  71  79 CALM      29.98R HX  80
6HR MIN TEMP:  78; 6HR MAX TEMP:  85;

EAGLE RIVER    PTCLDY    76  65  70 CALM      29.96S
6HR MIN TEMP:  76; 6HR MAX TEMP:  82;

LAND O LAKES   PTCLDY    77  67  72 CALM      29.97S
6HR MIN TEMP:  77; 6HR MAX TEMP:  83;

PHILLIPS       CLOUDY    76  71  83 CALM      29.96S
6HR MIN TEMP:  77; 6HR MAX TEMP:  82;

TOMAHAWK       MOCLDY    76  72  85 CALM      29.97R
6HR MIN TEMP:  76; 6HR MAX TEMP:  82;

MEDFORD        MOCLDY    78  73  85 CALM      29.95S HX  80
6HR MIN TEMP:  78; 6HR MAX TEMP:  83;

MERRILL        MOCLDY    78  74  89 CALM      29.96S HX  80
6HR MIN TEMP:  80; 6HR MAX TEMP:  85;

$$

WIZ029-030-035-036-043>047-020100-
CENTRAL WISCONSIN

CITY           SKY/WX    TMP DP  RH WIND       PRES   REMARKS
WAUSAU         MOCLDY    81  71  71 SW5       29.93S HX  85
6HR MIN TEMP:  81; 6HR MAX TEMP:  86;

MOSINEE        NOT AVBL
MARSHFIELD     PTCLDY    81  71  71 SW5       29.95R HX  85
6HR MIN TEMP:  81; 6HR MAX TEMP:  88;

STEVENS POINT  MOCLDY    81  69  67 SW6       29.95S HX  84
6HR MIN TEMP:  81; 6HR MAX TEMP:  86;

WAUPACA        PTCLDY    84  72  67 CALM      29.94S HX  90
6HR MIN TEMP:  84; 6HR MAX TEMP:  91;

WAUTOMA        MOCLDY    84  74  72 CALM      29.94S HX  91
6HR MIN TEMP:  84; 6HR MAX TEMP:  90;

WISC RAPIDS    PTCLDY    81  70  69 S3        29.95S HX  84
6HR MIN TEMP:  81; 6HR MAX TEMP:  88;

CAMP DOUGLAS   MOCLDY    82  77  83 S6        29.94S HX  91
$$

WIZ011>013-019>022-031-037>040-048>050-020100-
NORTHEAST WISCONSIN

CITY           SKY/WX    TMP DP  RH WIND       PRES   REMARKS
ANTIGO         PTCLDY    78  72  80 S3        29.97S HX  81
SHAWANO        PTCLDY    82  71  68 CALM      29.93S HX  87
6HR MIN TEMP:  82; 6HR MAX TEMP:  89;

OCONTO         PTCLDY    80  75  86 CALM      29.91F HX  84
6HR MIN TEMP:  80; 6HR MAX TEMP:  88;

STURGEON BAY   PTCLDY    73  66  78 S7        29.96S
6HR MIN TEMP:  75; 6HR MAX TEMP:  82;

GREEN BAY      CLEAR     81  71  71 S5        29.93S HX  85
6HR MIN TEMP:  81; 6HR MAX TEMP:  88;

MANITOWOC      CLEAR     70  66  87 MISG      29.96R FOG
6HR MIN TEMP:  70; 6HR MAX TEMP:  84;

APPLETON       MOCLDY    81  68  65 VRB6      29.93S HX  83
CLINTONVILLE   CLEAR     81  70  69 CALM      29.93S HX  84
OSHKOSH        CLEAR     79  72  79 S6        29.94S HX  82
6HR MIN TEMP:  79; 6HR MAX TEMP:  87;

$$

WIZ032>034-041-042-053>061-020100-
SOUTHWEST WISCONSIN

CITY           SKY/WX    TMP DP  RH WIND       PRES   REMARKS
LA CROSSE      MOCLDY    86  73  65 S6        29.91S HX  93
6HR MIN TEMP:  86; 6HR MAX TEMP:  90;

SPARTA         PTCLDY    83  69  63 S6        29.94S HX  86
6HR MIN TEMP:  83; 6HR MAX TEMP:  89;

VIROQUA          N/A     80  73  79 S5        29.97S HX  85
6HR MIN TEMP:  80; 6HR MAX TEMP:  87;

BOSCOBEL       PTCLDY    85  73  67 SW5       29.94S HX  91
6HR MIN TEMP:  85; 6HR MAX TEMP:  92;

PRAIRIE DU CHI PTCLDY    84  71  65 CALM      29.93F HX  89
6HR MIN TEMP:  84; 6HR MAX TEMP:  88;

PLATTEVILLE    CLEAR     81  75  82 SW7       29.97S HX  86
6HR MIN TEMP:  81; 6HR MAX TEMP:  86;

$$

WIZ056-057-062-063-064-067-068-020100-
SOUTH CENTRAL WISCONSIN

CITY           SKY/WX    TMP DP  RH WIND       PRES   REMARKS
REEDSBURG      CLEAR     81  73  78 S5        29.95S HX  86
6HR MIN TEMP:  81; 6HR MAX TEMP:  88;

BARABOO/DELLS  CLEAR     82  69  66 SW7       29.95F HX  85
6HR MIN TEMP:  82; 6HR MAX TEMP:  89;

LONE ROCK      CLEAR     84  73  69 SW5       29.95S HX  90
6HR MIN TEMP:  84; 6HR MAX TEMP:  89;

MINERAL POINT  PTCLDY    81  72  74 SW7       29.97F HX  84
MADISON        PTCLDY    84  70  62 SW5       29.95S HX  88
6HR MIN TEMP:  84; 6HR MAX TEMP:  88;

MIDDLETON      CLEAR    N/A N/A N/A CALM      29.97S
6HR MIN TEMP:  87; 6HR MAX TEMP:  90;

WATERTOWN      CLEAR     81  74  77 SW3       29.96S HX  86
6HR MIN TEMP:  81; 6HR MAX TEMP:  88;

MONROE         CLEAR     81  72  74 S10       29.98S HX  84
JANESVILLE     CLEAR     84  72  65 S8        29.97R HX  89
$$

WIZ051-052-058>065-066-070>072-020100-
SOUTHEAST WISCONSIN

CITY           SKY/WX    TMP DP  RH WIND       PRES   REMARKS
MILWAUKEE      CLEAR     85  70  60 SW7       29.97R HX  89
6HR MIN TEMP:  85; 6HR MAX TEMP:  90;

WAUKESHA       CLEAR     81  70  69 S3        29.99R HX  84
MILWAUKEE/TIMM CLEAR     84  66  54 SW7       29.98R HX  86
RACINE         CLEAR     84  69  60 SW7       29.99S HX  88
6HR MIN TEMP:  82; 6HR MAX TEMP:  88;

BURLINGTON     CLEAR     79  70  73 S3        29.98S HX  82
6HR MIN TEMP:  79; 6HR MAX TEMP:  87;

KENOSHA        CLEAR     84  70  62 SW7       29.98S HX  88
6HR MIN TEMP:  84; 6HR MAX TEMP:  90;

FOND DU LAC    CLEAR     81  73  76 S5        29.95S HX  86
6HR MIN TEMP:  81; 6HR MAX TEMP:  87;

SHEBOYGAN      CLEAR     78  72  81 SE3       29.96R HAZE    HX  80
6HR MIN TEMP:  78; 6HR MAX TEMP:  88;

WEST BEND      CLEAR     81  70  69 CALM      29.97S HX  84
JUNEAU         CLEAR     80  73  78 S5        29.97S HX  84
6HR MIN TEMP:  80; 6HR MAX TEMP:  86; 6HR PCP:  0.03;

$$

LSZ147-162-020100-
LAKE SUPERIOR

STATION/POSITION TIME  TEMP    WIND        PRES    WAVE
                       AIR SEA DIR/SP/G            HT/PER
                 (UTC) (F)     (DEG/KT/KT) (MB)    (FT/S)
W MID LAKE BUOY  2350   61 57  220/  4/  6 1012.3R   0
DEVILS ISLAND    0000   70     310/  3/  3 1012.2R
PORT WING        2340   81      CALM  /  1 1012.2S
SAXON HARBOR     2300   78        CALM     1011.9S
$$

LMZ867-665-643>646-020100-
LAKE MICHIGAN

STATION/POSITION TIME  TEMP    WIND        PRES    WAVE
                       AIR SEA DIR/SP/G            HT/PER
                 (UTC) (F)     (DEG/KT/KT) (MB)    (FT/S)
CHAMBERS ISLAND  2300   80     170/  4/ 10 1012.9S


USA.gov is the U.S. government's official web portal to all federal, state and local government web resources and services.